Weather Service Report


323 
ASUS45 KTFX 281410
RWRMT 
MONTANA REGIONAL WEATHER ROUNDUP
NATIONAL WEATHER SERVICE GREAT FALLS MT
700 AM MST TUE FEB 28 2017

NOTE: "FAIR" INDICATES FEW OR NO CLOUDS BELOW 12000 FEET WITH NO
SIGNIFICANT WEATHER AND/OR OBSTRUCTIONS TO VISIBILITY.

MTZ001>007-043-281500-
WEST OF THE DIVIDE
  
CITY           SKY/WX    TMP DP  RH WIND       PRES   REMARKS
KALISPELL      CLOUDY    19  17  92 W5        29.59R                  
MISSOULA       CLOUDY    26  21  81 E5        29.62S                  
BUTTE          CLOUDY    15   4  61 VRB5      29.58R                  
MULLAN PASS    LGT SNOW  14  12  92 VRB7      29.48R FOG     WCI   4  
ANACONDA         N/A     19  10  68 S12       29.59S WCI   7          
DEER LODGE       N/A     19  14  79 S13       29.60S WCI   7          
EUREKA           N/A     19  18  93 CALM      29.62R VSB 3/4          
HAMILTON         N/A     27  19  74 S10       29.62S WCI  17          
LIBBY            N/A     21  19  93 CALM      29.59R                  
PLAINS           N/A     23  18  81 NW5       29.65R                  
$$

MTZ008-052>055-281500-
SOUTHWEST MONTANA
  
CITY           SKY/WX    TMP DP  RH WIND       PRES   REMARKS
BOZEMAN        CLOUDY    21  12  68 E5        29.62S                  
DILLON         CLOUDY    15   5  64 S12       29.61S WCI   2          
W YELLOWSTONE  LGT SNOW  14   9  79 SW12G17   29.63S VSB 1   WCI   0  
ENNIS          CLOUDY    21   7  53 S17G23    29.67S WCI   7          
THREE FORKS      N/A     25  25 100 SW16      29.65S WCI  12          
TWIN BRIDGES     N/A     18   3  51 SE7       29.67R WCI   9          
$$

MTZ009-010-012-014-046-048-049-054-281500-
EAST SLOPES AND CENTRAL MONTANA
  
CITY           SKY/WX    TMP DP  RH WIND       PRES   REMARKS
CUT BANK       LGT SNOW  14  12  92 NW3       29.57S FOG              
GREAT FALLS    CLOUDY    18  10  71 S7        29.56R WCI   9          
MALMSTROM AFB  CLOUDY    15  13  91 N5        29.58R                  
HELENA         CLOUDY    13  12  96 CALM      29.61R                  
AUGUSTA        MOCLDY    11  10  97 N16       29.52R WCI  -6          
BOWMANS CRNR     N/A     16  11  79 S6        29.52S WCI   8          
CHOTEAU          N/A     12  12 100 N5        29.58S                  
CONRAD           N/A     14  11  88 NW3       29.64R                  
POWER          MOCLDY     7   4  87 N3        29.55S                  
RAYNESFORD     MOCLDY    26  12  55 SW13      29.55S WCI  15          
ULM            MOCLDY    24  12  59 MISG      29.57R                  
$$

MTZ011-013-016-021-045-047-050-051-281500-
NORTH CENTRAL MONTANA
  
CITY           SKY/WX    TMP DP  RH WIND       PRES   REMARKS
HAVRE          CLOUDY    12  10  92 E13       29.65S WCI  -3          
LEWISTOWN      CLOUDY    24  12  60 SW18      29.57R WCI  10          
N BAR RANCH      N/A     14   7  73 NW6       29.59S WCI   5          
CHINOOK          N/A     16  12  86 E8        29.68S WCI   5          
DENTON         MOCLDY    18  12  79 SE6       29.55R WCI   9          
FORT BENTON      N/A     16  10  79 N6        29.64R WCI   7          
GEYSER         MOCLDY    19  11  72 W5        29.55R                  
GRASS RANGE    MOCLDY    19  12  73 W8        29.55S WCI   9          
JUDITH GAP     MOCLDY    17   8  67 S9        29.57S WCI   5          
ROY              N/A     24  13  62 MISG      29.56S                  
STANFORD       MOCLDY    20  11  67 SW13      29.54S WCI   8          
WINIFRED       MOCLDY    24  15  67 CALM      29.57R                  
$$

MTZ017>020-022>027-061-062-281500-
NORTHEAST MONTANA
  
CITY           SKY/WX    TMP DP  RH WIND       PRES   REMARKS
GLASGOW        PTCLDY     9   6  88 E13       29.69S WCI  -7          
JORDAN           N/A      2  -3  80 CALM      29.66S                  
SIDNEY         CLOUDY    16  13  88 E7        29.79F WCI   6          
WOLF POINT     CLOUDY    13   9  84 E7        29.75F WCI   3          
PLENTYWOOD       N/A     10   7  85 E7        29.76S WCI   0          
SCOBEY           N/A     13   5  70 NW3       29.71F                  
$$

MTZ028>42-056>058-281500-
SOUTHCENTRAL AND SOUTHEAST MONTANA
  
CITY           SKY/WX    TMP DP  RH WIND       PRES   REMARKS
BAKER          CLOUDY    19  16  88 E8        29.72S WCI   9          
BILLINGS       CLOUDY    20  16  84 SW10      29.64S WCI   9          
LIVINGSTON     CLOUDY    24   8  50 SW23      29.60R WCI   9          
MILES CITY     PTCLDY    18  14  84 SE6       29.71S FOG     WCI  10  
BIG TIMBER     CLOUDY    23  10  58 W14       29.63S WCI  11          
EKALAKA          N/A     18  13  80 SE2       29.68R                  
FORSYTH          N/A     21  18  86 CALM      29.68F                  
HARLOWTON        N/A      8   3  82 N8        29.60S WCI  -5          
LAUREL           N/A     18   8  64 SW6       29.64S WCI  10          
$$

REGIONAL REPORTS...DAKOTAS
  
CITY           SKY/WX    TMP DP  RH WIND       PRES   REMARKS
WILLISTON      CLOUDY    10   6  84 SE6       29.82F FOG     WCI   0  
MINOT          MOCLDY     5   1  83 E3        29.88F                  
DICKINSON      CLOUDY    12  10  92 E7        29.75S FOG     WCI   1  
BEACH            N/A    N/A N/A N/A MISG        N/A                   
CROSBY         FLURRIES   5   1  85 SE7       29.85S WCI  -7          
TIOGA          LGT SNOW   9   9 100 SE9       29.84R WCI  -5          
WATFORD CITY   CLOUDY     9   7  92 SE9       29.82F WCI  -5          
BISMARCK       CLOUDY    18  14  84 E9        29.86R WCI   7          
GRAND FORKS    CLOUDY     8   0  69 N12       29.93S WCI  -7          
FARGO          CLEAR     20  17  88 N15       29.86S WCI   6          
BUFFALO SD       N/A     20  17  88 E10       29.65S WCI   9          
RAPID CITY     FOG       22  21  96 N16       29.68R VSB 1/4 WCI   8  
$$

REGIONAL REPORTS...WYOMING/IDAHO/WASHINGTON
  
CITY           SKY/WX    TMP DP  RH WIND       PRES   REMARKS
GILLETTE       CLEAR     21  18  88 W10       29.65S WCI  10          
SHERIDAN       CLOUDY    19   9  65 S7        29.65F WCI  10          
BUFFALO WY     CLOUDY    18   7  62 W3        29.63F                  
CODY           CLOUDY    23   5  46 SE6       29.65S WCI  16          
YELLOWSTONE LA   N/A      6   4  91 CALM      29.60F                  
IDAHO FALLS    CLOUDY    14  10  84 SW6       29.76S WCI   5          
SALMON         CLOUDY    27   9  46 S16       29.66R WCI  14          
BOISE          LGT SNOW  29  26  89 E3        29.84S FOG              
SPOKANE        MOCLDY    20  19  96 W14       29.68R WCI   7          
$$

REGIONAL REPORTS...ALBERTA
  
CITY           SKY/WX    TMP DP  RH WIND       PRES   REMARKS
EDMONTON       CLOUDY     5   0  78 CALM      29.70R                  
CALGARY        CLOUDY     9   0  66 CALM      29.63R                  
LETHBRIDGE     LGT SNOW  12  10  92 NW6       29.66R FOG     WCI   3  
MEDICINE HAT   CLOUDY    16  14  93 NW8       29.70R WCI   5          
WATERTON GATE    N/A     10   7  85 E1          N/A                   
CARDSTON         N/A     12   9  85 N6          N/A  WCI   3          
MILK RIVER       N/A     12  10  92 N12         N/A  WCI  -2          
ONEFOUR          N/A      9   7  92 NE12        N/A  WCI  -6          
$$

REGIONAL REPORTS...SASKATCHEWAN
  
CITY           SKY/WX    TMP DP  RH WIND       PRES   REMARKS
SWIFT CURRENT  CLOUDY    10   9  92 S8        29.65S WCI  -1          
REGINA         LGT SNOW   3   0  85 SE13      29.80F DRFTSNOWWCI -14  
SASKATOON      FLURRIES   7   1  78 E5        29.81R                  
CYPRESS HILLS    N/A     10   7  85 N1          N/A                   
VAL MARIE        N/A      7   3  85 E6          N/A  WCI  -3          
ASSINIBOIA       N/A      1  -2  85 S5          N/A                   
$$
  

Return to Home page


Western Regional Climate Center, wrcc@dri.edu